星链-30041 (STARLINK-30041 )

导读

STARLINK-30041是美国SpaceX公司星链互联网卫星星座的成员,2023年8月11日发射升空,归属星链分组部署计划。星链项目旨在搭建全球覆盖的低轨卫星互联网,该卫星入轨后,承担为偏远地区、海洋空域等场景提供高速低延迟宽带服务,持续扩充星链系统的全球覆盖容量与服务能力。

Basic Information
目录编号:
57613
目录名称:
STARLINK-30041
国际标识:
2023-119M
轨道中心:
EARTH
卫星名称:
星链-30041
卫星全名:
星链-30041 (STARLINK-30041 )
卫星状态:
在轨 (已飞行1120 天)
发射日期:
2023-08-11 UTC
国别 :
美国 (US)
星等 :
--
Orbit Information
数据来源 国际轨道数据 AOE轨道数据
星历时间 2026-09-04T02:24:44+0800
13小时前
查看轨道信息
2026-09-04T00:00:00+0800
16小时前
查看轨道信息
半长轴 6861.197km 6861.194km
偏心率 0.0000751 0.0001149
轨道倾角 43.001° 43.004°
近地点辐角 264.661° 223.028°
升交点赤经 155.660° 156.232°
平近点角 95.416° 303.702°
近地点 482.544km 482.268km
远地点 483.576km 483.846km
周期 94.267分钟 94.267分钟
每日圈数 15.275766 15.275775
Detailed Information
固有亮度:
5
最大亮度:
0.3
卫星平台:
Starlink v2.0 mini
覆盖范围:
全球
运营商:
太空探索技术公司
运营商所在国:
美国
制造商(研发单位):
太空探索技术公司
制造商所在国:
美国
使用方式:
暂无
Satellite Introduction
星链(Starlink)计划是由太空探索技术公司(SpaceX)提出的一个巨型低轨卫星互联网星座项目,计划在2019年至2024年间在太空搭建由约1.2万颗卫星组成的“星链”网络,其中1584颗将部署在地球上空550千米处的近地轨道,并从2020年开始工作。该卫星仍在工作。
2D Orbit Map
3D Orbit Map
Orbit Altitude Analysis Chart
Orbit Inclination Analysis Chart
Orbit Comprehensive Analysis Chart
View Comprehensive Chart
Conjunction Data List
Event ID Objects TCA Miss Dist (km) Collision Risk Probability Collision Risk Index (CRI) Action
CDM_260904-211105-761306-645621
2026-09-04T
21:11:31+0000
0.547 km
远距离
1.300325E-4 高风险 0.77
CDM_260904-083705-761306-257421
2026-09-04T
08:37:37+0000
0.824 km
远距离
3.958565E-5 中风险 0.67
CDM_260904-193705-761306-645622
2026-09-04T
19:37:22+0000
1.105 km
极远距离
1.446272E-5 中风险 0.58
CDM_260905-024005-761306-257421
2026-09-05T
02:40:22+0000
1.265 km
极远距离
9.120139E-6 低风险 0.54
CDM_260904-101105-761306-257421
2026-09-04T
10:11:46+0000
1.371 km
极远距离
6.928708E-6 低风险 0.52
CDM_260904-224505-761306-645621
2026-09-04T
22:45:40+0000
1.496 km
极远距离
5.163054E-6 低风险 0.49
CDM_260905-010605-761306-257421
2026-09-05T
01:06:13+0000
1.554 km
极远距离
4.602358E-6 低风险 0.48
CDM_260828-191805-390005-761321
2026-08-28T
19:18:30+0000
1.734 km
极远距离
2.703408E-6 低风险 0.44
CDM_260905-062204-380405-761321
SUOMI100 (43804)
2026-09-05T
06:22:59+0000
2.463 km
极远距离
1.760267E-6 低风险 0.4
CDM_260904-180305-761306-645622
2026-09-04T
18:03:13+0000
2.220 km
极远距离
1.745971E-6 低风险 0.4